Regional Weather Roundup
Issued by NWS Little Rock, AR

Home | Current Version | Previous Version | Text Only | Print | Product List | Glossary Off
Versions: 1 2 3 4 5 6 7 8 9 10 11 12 13 14 15 16 17 18 19 20 21 22 23 24 25 26 27 28 29 30 31 32 33 34 35 36 37 38 39 40 41 42 43 44 45 46 47 48 49 50

000
ASUS44 KLZK 221305
RWRLZK

WEATHER ROUNDUP FOR ARKANSAS
NATIONAL WEATHER SERVICE LITTLE ROCK AR
800 AM CDT TUE JUL 22 2014

NOTE: "FAIR" INDICATES FEW OR NO CLOUDS BELOW 12,000 FEET WITH NO
SIGNIFICANT WEATHER AND/OR OBSTRUCTIONS TO VISIBILITY.

ARZ001-003-010-029-221400-
NORTHWEST ARKANSAS

CITY           SKY/WX    TMP DP  RH WIND       PRES   REMARKS
FAYETTEVILLE   SUNNY     69  67  93 CALM      30.13R
FORT SMITH     SUNNY     73  69  87 E7        30.10R
HARRISON       SUNNY     69  67  93 SE3       30.14R
BENTONVILLE    SUNNY     72  66  83 CALM      30.14R
ROGERS         SUNNY     72  67  84 SE5       30.15R
SILOAM SPGS    SUNNY     72  63  73 SE3       30.13S
HIGHFILL       SUNNY     71  69  93 S3        30.13R
SPRINGDALE     SUNNY     72  68  88 SE3       30.15R
$$

ARZ004-005-016-221400-
NORTH CENTRAL ARKANSAS

CITY           SKY/WX    TMP DP  RH WIND       PRES   REMARKS
BATESVILLE     SUNNY     66  66 100 CALM      30.11S
FLIPPIN        SUNNY     66  63  88 CALM      30.12S
MTN HOME       SUNNY     70  67  90 S5        30.11S FOG
$$

ARZ040-041-221400-
WEST CENTRAL ARKANSAS

CITY           SKY/WX    TMP DP  RH WIND       PRES   REMARKS
MENA           CLOUDY    70  68  94 CALM      30.14R VSB<1/4
MOUNT IDA      FOG       66  66 100 CALM      30.10R VSB 1/2
$$

ARZ009-017-025-026-028-221400-
NORTHEAST ARKANSAS

CITY           SKY/WX    TMP DP  RH WIND       PRES   REMARKS
CORNING        FAIR      70  70 100 CALM      30.11S FOG
JONESBORO      SUNNY     73  68  84 CALM      30.10S
NEWPORT        SUNNY     71  69  93 N13       30.12R FOG
WALNUT RIDGE   SUNNY     70  16  12 CALM      30.10R
BLYTHEVILLE    SUNNY     75  69  81 CALM      30.10S
$$

ARZ022-023-033-042-044-221400-
CENTRAL ARKANSAS

CITY           SKY/WX    TMP DP  RH WIND       PRES   REMARKS
LITTLE ROCK    SUNNY     74  68  81 CALM      30.10S
N LITTLE ROCK    N/A     75  70  85 CALM      30.10S
JACKSONVILLE   SUNNY     71  68  90 CALM      30.10S
SEARCY         SUNNY     72  69  90 NW3       30.12R
HOT SPRINGS    CLOUDY    69  68  96 CALM      30.11S FOG
RUSSELLVILLE   SUNNY     72  68  87 NW3       30.11R
CLINTON        FOG       66  66 100 CALM      30.13S VSB 1/2
$$

ARZ036-221400-
EAST ARKANSAS

CITY           SKY/WX    TMP DP  RH WIND       PRES   REMARKS
WEST MEMPHIS   SUNNY     76  71  85 CALM      30.08S
$$

ARZ050-053-066-070-073-221400-
SOUTHWEST ARKANSAS

CITY           SKY/WX    TMP DP  RH WIND       PRES   REMARKS
ARKADELPHIA    FAIR      72  70  93 CALM      30.11R
CAMDEN         SUNNY     72  66  83 CALM      30.09R FOG
TEXARKANA      SUNNY     72  70  93 SE5       30.10R
EL DORADO      SUNNY     71  70  96 CALM      30.10R FOG
DE QUEEN       SUNNY     69  69 100 CALM      30.09R FOG
$$

ARZ056-057-069-221400-
SOUTHEAST ARKANSAS

CITY           SKY/WX    TMP DP  RH WIND       PRES   REMARKS
PINE BLUFF     SUNNY     72  70  93 NW3       30.10R FOG
STUTTGART      SUNNY     72  70  94 N5        30.10S
MONTICELLO     SUNNY     74  69  85 CALM      30.09R

$$





USA.gov is the U.S. government's official web portal to all federal, state and local government web resources and services.